Weather History for Edinburg, TX

Change the Weather History Date:

Saturday, June 15, 2013

  Actual Average (KMFE) Record (KMFE)
Temperature  
Mean Temperature 88 °F 86 °F  
Max Temperature 99 °F 96 °F 110 °F (1998)
Min Temperature 78 °F 76 °F 62 °F (1979)
Degree Days  
Heating Degree Days 0 0  
Month to date heating degree days 0  
Since 1 June heating degree days 0  
Since 1 July heating degree days 579  
Cooling Degree Days 24 21  
Month to date cooling degree days 309  
Year to date cooling degree days 1564  
Since 1 June cooling degree days 309  
Growing Degree Days 38 (Base 50)    
Moisture  
Dew Point 72 °F    
Average Humidity 64    
Maximum Humidity 89    
Minimum Humidity 33    
Precipitation  
Precipitation 0.00 in 0.08 in 3.26 in (1987)
Month to date precipitation 1.23  
Year to date precipitation 8.01  
Sea Level Pressure  
Sea Level Pressure 29.90 in    
Wind  
Wind Speed 9 mph (SE)    
Max Wind Speed 18 mph    
Max Gust Speed 25 mph    
Visibility 7 miles    
Events      
T = Trace of Precipitation, MM = Missing Value Source: NWS Daily Summary

Daily Weather History Graph

Daily Weather History Graph

Search for Another Location

Airport:

Trip Planner

Search our weather history database for the weather conditions in past years. The results will help you decide how hot, cold, wet, or windy it might be!

Date:

Astronomy

Jun. 15, 2013 Rise Set
Actual Time 6:39 AM CDT 8:26 PM CDT
Civil Twilight 6:13 AM CDT 8:53 PM CDT
Nautical Twilight 5:41 AM CDT 9:24 PM CDT
Astronomical Twilight 5:08 AM CDT 9:57 PM CDT
Moon 12:42 PM CDT (6/15) 12:33 AM CDT (6/15)
Length of Visible Light 14h 39m
Length of Day
13h 47m
Waxing Crescent, 40% of the Moon is Illuminated
Jun 15
Waxing Crescent
Jun 16
First Quarter
Jun 23
Full
Jun 29
Last Quarter
Jul 8
New

Hourly Weather History & Observations

Time (CDT) Temp. Heat Index Dew Point Humidity Pressure Visibility Wind Dir Wind Speed Gust Speed Precip Events Conditions
12:15 AM 80.6 °F 86.2 °F 75.2 °F 84% 29.93 in 7.0 mi SE 8.1 mph - N/A   Clear
12:35 AM 80.2 °F 85.4 °F 75.0 °F 84% 29.92 in 7.0 mi SE 8.1 mph - N/A   Clear
12:55 AM 80.1 °F 85.1 °F 75.0 °F 85% 29.92 in 7.0 mi SE 8.1 mph - N/A   Clear
1:15 AM 79.7 °F - 75.2 °F 86% 29.91 in 7.0 mi SE 9.2 mph - N/A   Clear
1:35 AM 79.7 °F - 75.2 °F 86% 29.90 in 7.0 mi SE 8.1 mph - N/A   Clear
1:55 AM 79.7 °F - 75.2 °F 86% 29.90 in 7.0 mi SE 5.8 mph - N/A   Clear
2:15 AM 79.3 °F - 74.8 °F 86% 29.90 in 7.0 mi SE 6.9 mph - N/A   Clear
2:35 AM 79.3 °F - 75.0 °F 87% 29.90 in 7.0 mi SE 6.9 mph - N/A   Clear
2:55 AM 79.2 °F - 74.8 °F 87% 29.89 in 7.0 mi SE 6.9 mph - N/A   Clear
3:15 AM 79.0 °F - 74.8 °F 87% 29.88 in 7.0 mi SE 6.9 mph - N/A   Clear
3:35 AM 78.8 °F - 74.7 °F 87% 29.89 in 5.0 mi SE 5.8 mph - N/A   Clear
3:55 AM 78.8 °F - 74.8 °F 88% 29.88 in 7.0 mi SE 8.1 mph - N/A   Clear
4:15 AM 78.8 °F - 74.8 °F 88% 29.88 in 7.0 mi SE 8.1 mph - N/A   Clear
4:35 AM 78.8 °F - 74.8 °F 88% 29.89 in 7.0 mi SE 6.9 mph - N/A   Clear
4:55 AM 78.8 °F - 74.8 °F 88% 29.89 in 7.0 mi SSE 5.8 mph - N/A   Clear
5:15 AM 78.8 °F - 75.0 °F 88% 29.89 in 7.0 mi SE 5.8 mph - N/A   Clear
5:35 AM 78.8 °F - 74.8 °F 88% 29.90 in 7.0 mi SE 4.6 mph - N/A   Clear
5:55 AM 78.8 °F - 75.0 °F 88% 29.90 in 7.0 mi SE 5.8 mph - N/A   Clear
6:15 AM 78.8 °F - 75.2 °F 89% 29.91 in 7.0 mi SE 4.6 mph - N/A   Scattered Clouds
6:35 AM 78.6 °F - 75.0 °F 89% 29.92 in 7.0 mi SE 4.6 mph - N/A   Scattered Clouds
6:55 AM 78.8 °F - 75.2 °F 89% 29.93 in 5.0 mi SE 5.8 mph - N/A   Scattered Clouds
7:15 AM 78.8 °F - 75.2 °F 89% 29.93 in 5.0 mi SE 4.6 mph - N/A   Scattered Clouds
7:35 AM 78.8 °F - 75.4 °F 89% 29.93 in 5.0 mi SE 3.5 mph - N/A   Clear
7:55 AM 79.3 °F - 75.7 °F 89% 29.93 in 5.0 mi SE 6.9 mph - N/A   Clear
8:35 AM 81.0 °F 87.1 °F 75.7 °F 84% 29.95 in 7.0 mi SE 5.8 mph - N/A   Clear
8:55 AM 82.8 °F 90.4 °F 75.6 °F 79% 29.95 in 5.0 mi SSE 6.9 mph - N/A   Haze
9:15 AM 84.4 °F 92.7 °F 75.2 °F 74% 29.95 in 7.0 mi SSE 9.2 mph - N/A   Clear
9:35 AM 86.2 °F 95.1 °F 74.8 °F 69% 29.95 in 5.0 mi SE 12.7 mph - N/A   Haze
9:55 AM 87.1 °F 95.4 °F 74.1 °F 65% 29.95 in 7.0 mi SSE 13.8 mph - N/A   Mostly Cloudy
10:15 AM 87.3 °F 95.3 °F 73.6 °F 64% 29.95 in 7.0 mi South 9.2 mph - N/A   Scattered Clouds
10:35 AM 88.0 °F 95.6 °F 73.0 °F 61% 29.95 in 5.0 mi South 11.5 mph - N/A   Haze
10:55 AM 88.9 °F 96.6 °F 72.9 °F 59% 29.94 in 5.0 mi South 11.5 mph 16.1 mph N/A   Haze
11:15 AM 91.4 °F 98.4 °F 71.6 °F 52% 29.94 in 5.0 mi SSE 17.3 mph 20.7 mph N/A   Haze
11:35 AM 91.4 °F 98.4 °F 71.6 °F 52% 29.94 in 7.0 mi SSE 13.8 mph 20.7 mph N/A   Mostly Cloudy
11:55 AM 93.6 °F 99.5 °F 70.2 °F 46% 29.94 in 7.0 mi SE 16.1 mph 20.7 mph N/A   Scattered Clouds
12:15 PM 94.1 °F 98.9 °F 68.7 °F 43% 29.93 in 5.0 mi SSE 15.0 mph 20.7 mph N/A   Haze
12:35 PM 95.5 °F 100.6 °F 68.7 °F 41% 29.92 in 7.0 mi SSE 13.8 mph 19.6 mph N/A   Scattered Clouds
1:15 PM 95.2 °F 99.9 °F 68.4 °F 41% 29.91 in 7.0 mi SSE 9.2 mph 21.9 mph N/A   Scattered Clouds
1:35 PM 95.7 °F 100.3 °F 68.2 °F 40% 29.90 in 4.0 mi SE 15.0 mph 20.7 mph N/A   Haze
1:55 PM 96.8 °F 100.7 °F 66.2 °F 37% 29.90 in 7.0 mi SSE 10.4 mph 23.0 mph N/A   Scattered Clouds
2:15 PM 97.7 °F 101.7 °F 66.7 °F 36% 29.90 in 7.0 mi SSE 11.5 mph 17.3 mph N/A   Scattered Clouds
2:35 PM 98.1 °F 102.4 °F 66.9 °F 36% 29.89 in 7.0 mi SE 13.8 mph 19.6 mph N/A   Scattered Clouds
2:55 PM 98.4 °F 102.5 °F 66.6 °F 35% 29.88 in 7.0 mi SE 12.7 mph 25.3 mph N/A   Scattered Clouds
3:15 PM 99.1 °F 102.6 °F 65.3 °F 33% 29.87 in 7.0 mi SSE 11.5 mph 20.7 mph N/A   Scattered Clouds
3:35 PM 98.1 °F 103.0 °F 67.6 °F 37% 29.87 in 7.0 mi SE 16.1 mph 23.0 mph N/A   Scattered Clouds
3:55 PM 98.6 °F 102.2 °F 66.0 °F 34% 29.86 in 7.0 mi South 15.0 mph 24.2 mph N/A   Scattered Clouds
4:15 PM 96.4 °F 100.6 °F 66.9 °F 38% 29.86 in 7.0 mi SSE 10.4 mph - N/A   Scattered Clouds
4:35 PM 96.8 °F 101.8 °F 68.4 °F 39% 29.86 in 7.0 mi SE 17.3 mph 21.9 mph N/A   Scattered Clouds
4:55 PM 97.5 °F 102.6 °F 67.8 °F 38% 29.85 in 7.0 mi ESE 18.4 mph 24.2 mph N/A   Scattered Clouds
5:15 PM 97.3 °F 101.7 °F 67.3 °F 37% 29.85 in 7.0 mi SSE 15.0 mph 24.2 mph N/A   Scattered Clouds
5:35 PM 96.8 °F 101.2 °F 67.3 °F 38% 29.85 in 7.0 mi SSE 16.1 mph 21.9 mph N/A   Scattered Clouds
5:55 PM 96.8 °F 100.7 °F 66.4 °F 37% 29.85 in 7.0 mi SE 15.0 mph 18.4 mph N/A   Scattered Clouds
6:15 PM 96.1 °F 100.5 °F 67.5 °F 39% 29.85 in 7.0 mi SE 17.3 mph 21.9 mph N/A   Clear
6:35 PM 95.2 °F 99.9 °F 68.0 °F 41% 29.85 in 7.0 mi SSE 13.8 mph 23.0 mph N/A   Clear
6:55 PM 94.3 °F 98.7 °F 68.0 °F 42% 29.86 in 5.0 mi SSE 15.0 mph - N/A   Haze
7:15 PM 93.6 °F 97.9 °F 68.0 °F 43% 29.86 in 7.0 mi SSE 16.1 mph 20.7 mph N/A   Clear
7:35 PM 92.1 °F 97.7 °F 69.8 °F 48% 29.86 in 7.0 mi SSE 16.1 mph 19.6 mph N/A   Clear
7:55 PM 90.7 °F 95.4 °F 69.3 °F 49% 29.86 in 5.0 mi SE 15.0 mph 23.0 mph N/A   Haze
8:15 PM 89.6 °F 95.2 °F 70.2 °F 53% 29.87 in 7.0 mi SE 17.3 mph - N/A   Clear
8:35 PM 88.2 °F 94.1 °F 71.2 °F 57% 29.87 in 7.0 mi SE 15.0 mph 18.4 mph N/A   Clear
8:55 PM 86.9 °F 92.9 °F 71.6 °F 60% 29.88 in 7.0 mi SE 16.1 mph - N/A   Clear
9:15 PM 86.2 °F 92.2 °F 71.6 °F 62% 29.89 in 7.0 mi SE 13.8 mph - N/A   Clear
9:35 PM 85.1 °F 91.1 °F 72.1 °F 65% 29.90 in 7.0 mi SE 10.4 mph - N/A   Clear
9:55 PM 84.4 °F 90.3 °F 72.5 °F 67% 29.91 in 7.0 mi SE 8.1 mph - N/A   Clear
10:15 PM 83.7 °F 89.4 °F 72.5 °F 69% 29.93 in 7.0 mi SE 9.2 mph - N/A   Clear
10:35 PM 83.1 °F 88.9 °F 72.9 °F 71% 29.93 in 7.0 mi SE 8.1 mph - N/A   Clear
10:55 PM 82.6 °F 88.3 °F 73.0 °F 73% 29.94 in 7.0 mi SE 8.1 mph - N/A   Clear
11:15 PM 82.4 °F 88.2 °F 73.4 °F 74% 29.95 in 10.0 mi SE 8.1 mph - N/A   Clear
11:35 PM 82.0 °F 87.7 °F 73.6 °F 75% 29.95 in 7.0 mi SSE 6.9 mph - N/A   Scattered Clouds
11:55 PM 81.9 °F 87.7 °F 73.9 °F 77% 29.96 in 7.0 mi SE 8.1 mph - N/A   Mostly Cloudy